Tracking 31030 objects as of 15-Jul-2025
HD Live streaming from Space Station
objects crossing your sky now

STARLINK-11459

Track STARLINK-11459 now!
10-day predictions
STARLINK-11459 is classified as:


NORAD ID: 62464
Int'l Code: 2024-254C
Perigee: 362.4 km
Apogee: 364.4 km
Inclination: 43.0 °
Period: 91.7 minutes
Semi major axis: 6734 km
RCS: Unknown
Launch date: December 31, 2024
Source: United States (US)
Launch site: AIR FORCE EASTERN TEST RANGE (AFETR)
Your satellite tracking list
Your tracking list is empty




NASA's NSSDC Master Catalog

Two Line Element Set (TLE):
1 62464U 24254C   25196.08000576  .00145414  00000-0  11132-2 0  9997
2 62464  42.9999 215.0154 0001446 260.7666  99.3038 15.70921704 32027
Source of the keplerian elements: AFSPC